sat.trackr.live / text

‹ back to catalog

STARLINK-3890

NORAD 52455 · 2022-049E

PAYLOAD ACTIVE UNKNOWN

§ Identity

Operator
Country
US
Launch date
2022-05-06
Launch site
AFETR
Launch vehicle
Mass (kg)
RCS (m²)

Purposes: comms

External: N2YO · Heavens-Above · Gunter

§ Orbital elements

Epoch: 2026-09-20T00:48:19.463040Z

Period
93.79 min
Inclination
53.1601°
Eccentricity
0.0001169
Mean motion
15.35402037 rev/d
Perigee alt
458.9 km
Apogee alt
460.5 km
Semi-major
6,837.9 km
B*
2.6676e-5
RAAN
271.6370°
Arg perigee
75.8700°
Mean anomaly
284.2432°
Rev number
24,151

§ Raw data

STARLINK-38901 52455U 22049E   26263.03355860  .00000550  00000+0  26676-4 0  99972 52455  53.1601 271.6370 0001169  75.8700 284.2432 15.35402037241517

JSON: /api/v1/satellites/52455 · /tle

For live sub-satellite position, see the globe view (requires WebGL).

§ Visibility from observer

Set your observer location to see the next 7 days of passes ≥ 10°. The values pass through the URL so the page stays shareable.

No JS? Fill the form by hand. The geolocation button needs JavaScript.